San Carlos, CA

9:51 PM PST on February 24, 2017 (GMT -0800)
San Carlos

Weather History for KSQL - November, 2014

Change the Weather History Date:

Monday, November 10, 2014

  Actual Average Record
Temperature  
Mean Temperature 60 °F -  
Max Temperature 66 °F 65 °F 85 °F (1955)
Min Temperature 53 °F 45 °F 34 °F (1978)
Degree Days  
Heating Degree Days 6    
Growing Degree Days 10 (Base 50)    
Moisture  
Dew Point 54 °F    
Average Humidity 89    
Maximum Humidity 100    
Minimum Humidity 64    
Precipitation  
Precipitation 0.00 in - - ()
Sea Level Pressure  
Sea Level Pressure 29.84 in    
Wind  
Wind Speed 2 mph (West)    
Max Wind Speed 9 mph    
Max Gust Speed -    
Visibility 7 miles    
Events Fog    
Averages and records for this station are not official NWS values.
T = Trace of Precipitation, MM = Missing Value Source: NWS Daily Summary

Daily Weather History Graph

Daily Weather History Graph

Search for Another Location

Airport or City:

Trip Planner

Search our weather history database for the weather conditions in past years. The results will help you decide how hot, cold, wet, or windy it might be!

Date:

Astronomy

Nov. 10, 2014 Rise Set
Actual Time 6:43 AM PST 5:01 PM PST
Civil Twilight 6:15 AM PST 5:29 PM PST
Nautical Twilight 5:44 AM PST 6:00 PM PST
Astronomical Twilight 5:13 AM PST 6:31 PM PST
Moon 8:35 PM PST (11/10) 10:09 AM PST (11/10)
Length of Visible Light 11h 13m
Length of Day
10h 18m
Waning Gibbous, 84% of the Moon is Illuminated
Nov 10
Waning Gibbous
Nov 14
Last Quarter
Nov 22
New
Nov 29
First Quarter
Dec 6
Full

Hourly Weather History & Observations

Time (PST) Temp. Dew Point Humidity Pressure Visibility Wind Dir Wind Speed Gust Speed Precip Events Conditions
12:10 AM 55.4 °F 51.8 °F 88% 29.85 in 10.0 mi Calm Calm - N/A   Clear
12:30 AM 55.4 °F 50.0 °F 82% 29.84 in 10.0 mi SW 3.5 mph - N/A   Clear
12:50 AM 53.6 °F 51.8 °F 94% 29.84 in 10.0 mi SW 4.6 mph - N/A   Mostly Cloudy
1:10 AM 53.6 °F 51.8 °F 94% 29.84 in 10.0 mi Calm Calm - N/A   Overcast
1:30 AM 53.6 °F 51.8 °F 94% 29.84 in 10.0 mi Calm Calm - N/A   Overcast
1:50 AM 53.6 °F 50.0 °F 88% 29.84 in 10.0 mi Calm Calm - N/A   Mostly Cloudy
2:10 AM 53.6 °F 50.0 °F 88% 29.84 in 10.0 mi Calm Calm - N/A   Mostly Cloudy
2:30 AM 53.6 °F 50.0 °F 88% 29.84 in 10.0 mi SSW 3.5 mph - N/A   Overcast
2:50 AM 53.6 °F 50.0 °F 88% 29.83 in 10.0 mi SSW 4.6 mph - N/A   Overcast
3:10 AM 53.6 °F 53.6 °F 100% 29.82 in 10.0 mi SSW 3.5 mph - N/A   Overcast
3:30 AM 53.6 °F 50.0 °F 88% 29.82 in 10.0 mi Calm Calm - N/A   Overcast
3:50 AM 53.6 °F 50.0 °F 88% 29.81 in 10.0 mi Calm Calm - N/A   Overcast
4:10 AM 53.6 °F 51.8 °F 94% 29.82 in 0.2 mi Calm Calm - N/A Fog Fog
4:30 AM 53.6 °F 53.6 °F 100% 29.81 in 0.2 mi SW 3.5 mph - N/A Fog Fog
4:50 AM 53.6 °F 53.6 °F 100% 29.82 in 0.2 mi Calm Calm - N/A Fog Fog
5:10 AM 53.6 °F 53.6 °F 100% 29.82 in 0.2 mi Calm Calm - N/A Fog Fog
5:30 AM 55.4 °F 55.4 °F 100% 29.82 in 0.5 mi Calm Calm - N/A Fog Fog
5:50 AM 55.4 °F 55.4 °F 100% 29.83 in 5.0 mi Calm Calm - N/A   Overcast
6:10 AM 55.4 °F 55.4 °F 100% 29.83 in 5.0 mi WNW 3.5 mph - N/A   Overcast
6:30 AM 55.4 °F 55.4 °F 100% 29.83 in 4.0 mi NW 3.5 mph - N/A   Overcast
6:49 AM 55.4 °F 55.4 °F 100% 29.83 in 1.2 mi Calm Calm - N/A   Overcast
6:50 AM 55.4 °F 55.4 °F 100% 29.83 in 1.0 mi Calm Calm - N/A   Overcast
7:01 AM 55.4 °F 55.4 °F 100% 29.83 in 0.5 mi Calm Calm - N/A Fog Fog
7:50 AM 55.4 °F 55.4 °F 100% 29.84 in 0.2 mi Calm Calm - N/A Fog Fog
8:49 AM 55.4 °F 55.4 °F 100% 29.86 in 0.5 mi Calm Calm - N/A Fog Fog
9:47 AM 57.2 °F 57.2 °F 100% 29.87 in 1.5 mi Calm Calm - N/A   Mist
10:47 AM 57.2 °F 57.2 °F 100% 29.87 in 2.0 mi ENE 3.5 mph - N/A   Scattered Clouds
11:20 AM 60.8 °F 57.2 °F 88% 29.86 in 3.0 mi Calm Calm - N/A   Partly Cloudy
11:47 AM 62.6 °F 57.2 °F 82% 29.84 in 3.0 mi NE 3.5 mph - N/A   Haze
12:49 PM 62.6 °F 57.2 °F 82% 29.82 in 3.0 mi NNE 8.1 mph - N/A   Partly Cloudy
1:52 PM 66.2 °F 53.6 °F 64% 29.81 in 5.0 mi West 9.2 mph - N/A   Haze
2:49 PM 66.2 °F 53.6 °F 64% 29.81 in 5.0 mi West 9.2 mph - N/A   Haze
3:56 PM 62.6 °F 53.6 °F 72% 29.82 in 8.0 mi West 9.2 mph - N/A   Clear
4:49 PM 62.6 °F 53.6 °F 72% 29.81 in 10.0 mi WNW 3.5 mph - N/A   Partly Cloudy
5:50 PM 59.0 °F 53.6 °F 82% 29.82 in 10.0 mi WNW 3.5 mph - N/A   Partly Cloudy
6:52 PM 59.0 °F 53.6 °F 82% 29.83 in 10.0 mi Calm Calm - N/A   Clear
7:50 PM 59.0 °F 53.6 °F 82% 29.82 in 10.0 mi SSE 5.8 mph - N/A   Partly Cloudy
8:50 PM 59.0 °F 55.4 °F 88% 29.83 in 10.0 mi Calm Calm - N/A   Scattered Clouds
9:10 PM 59.0 °F 55.4 °F 88% 29.84 in 10.0 mi Calm Calm - N/A   Overcast
9:30 PM 59.0 °F 55.4 °F 88% 29.84 in 10.0 mi Calm Calm - N/A   Overcast
9:50 PM 59.0 °F 53.6 °F 82% 29.85 in 10.0 mi NW 4.6 mph - N/A   Overcast
10:10 PM 59.0 °F 53.6 °F 82% 29.85 in 10.0 mi WNW 5.8 mph - N/A   Overcast
10:30 PM 59.0 °F 53.6 °F 82% 29.86 in 10.0 mi WNW 3.5 mph - N/A   Overcast
10:50 PM 59.0 °F 53.6 °F 82% 29.86 in 10.0 mi WSW 3.5 mph - N/A   Overcast
11:10 PM 59.0 °F 53.6 °F 82% 29.86 in 10.0 mi WSW 3.5 mph - N/A   Overcast
11:30 PM 59.0 °F 53.6 °F 82% 29.86 in 10.0 mi Calm Calm - N/A   Overcast
11:50 PM 59.0 °F 53.6 °F 82% 29.86 in 10.0 mi SW 4.6 mph - N/A   Overcast